FW0014 Weather Reports


time (UTC)temp
C
wind
direction
speed
KPH
gust
KPH
rain 1hr
cm
rain 24hr
cm
rain mn
cm
humidity
%
barometer
mb
20260505040328 22 188 0.0 0.0 0.00 0.00 0.00 75 1009.9
20260505040025 22 166 0.0 0.0 0.00 0.00 0.00 75 1008.1
20260505035823 22 177 0.0 0.0 0.00 0.00 0.00 74 1009.9
20260505035509 22 162 0.0 0.0 0.00 0.00 0.00 74 1008.2
20260505035320 22 183 0.0 0.0 0.00 0.00 0.00 74 1009.9
20260505035102 22 194 0.0 0.0 0.00 0.00 0.00 74 1008.2
20260505034836 22 160 0.0 0.0 0.00 0.00 0.00 74 1009.9
20260505034539 22 154 0.0 0.0 0.00 0.00 0.00 74 1008.1
20260505034331 22 187 0.0 0.0 0.00 0.00 0.00 74 1009.9
20260505034018 22 189 0.0 0.0 0.00 0.00 0.00 73 1008.2
20260505033828 22 183 0.0 0.0 0.00 0.00 0.00 73 1009.9
20260505033513 22 225 0.0 0.0 0.00 0.00 0.00 73 1008.2
20260505033345 22 178 0.0 0.0 0.00 0.00 0.00 73 1009.9
20260505033044 22 202 0.0 0.0 0.00 0.00 0.00 73 1008.2
20260505032818 22 163 0.0 0.0 0.00 0.00 0.00 73 1009.9
20260505032536 22 169 0.0 0.0 0.00 0.00 0.00 73 1008.2
20260505032315 22 164 0.0 0.0 0.00 0.00 0.00 73 1009.9
20260505032026 22 165 0.0 0.0 0.00 0.00 0.00 73 1008.2
20260505031831 22 173 0.0 0.0 0.00 0.00 0.00 73 1009.9
20260505031508 22 186 0.0 0.0 0.00 0.00 0.00 73 1008.1
20260505031326 22 201 0.0 0.0 0.00 0.00 0.00 73 1009.9
20260505031002 22 188 0.0 0.0 0.00 0.00 0.00 73 1008.1
20260505030824 22 181 0.0 0.0 0.00 0.00 0.00 73 1009.8
20260505030600 22 198 0.0 0.0 0.00 0.00 0.00 73 1008.1
20260505030320 22 187 0.0 0.0 0.00 0.00 0.00 73 1009.8
20260505025814 23 185 0.0 0.0 0.00 0.00 0.00 72 1009.8
20260505025546 22 185 0.0 0.0 0.00 0.00 0.00 72 1008.2
20260505025330 23 195 0.0 0.0 0.00 0.00 0.00 72 1009.8
20260505025039 22 178 0.0 0.0 0.00 0.00 0.00 72 1008.1
20260505024826 23 181 0.0 0.0 0.00 0.00 0.00 72 1009.8
20260505024504 22 213 0.0 0.0 0.00 0.00 0.00 72 1008.0
20260505024321 23 199 0.0 0.0 0.00 0.00 0.00 72 1009.7
20260505024057 22 193 0.0 0.0 0.00 0.00 0.00 72 1008.0
20260505023815 23 188 0.0 0.0 0.00 0.00 0.00 72 1009.7
20260505023550 22 195 0.0 0.0 0.00 0.00 0.00 72 1007.9
20260505023331 23 179 0.0 0.0 0.00 0.00 0.00 72 1009.6
20260505023046 22 172 0.0 0.0 0.00 0.00 0.00 72 1008.0
20260505022828 23 193 0.0 0.0 0.00 0.00 0.00 72 1009.8
20260505022540 22 190 0.0 0.0 0.00 0.00 0.00 71 1008.1
20260505022322 23 190 0.0 0.0 0.00 0.00 0.00 71 1009.8
20260505022037 23 212 0.0 0.0 0.00 0.00 0.00 71 1008.0
20260505021819 23 180 0.0 0.0 0.00 0.00 0.00 71 1009.7
20260505021527 23 183 0.0 0.0 0.00 0.00 0.00 71 1007.8
20260505021314 23 151 0.0 0.0 0.00 0.00 0.00 71 1009.4
20260505021021 23 187 0.0 0.0 0.00 0.00 0.00 71 1007.8
20260505020849 23 154 0.0 0.0 0.00 0.00 0.00 71 1009.6
20260505020540 23 179 0.0 0.0 0.00 0.00 0.00 71 1008.0
20260505020324 23 194 0.0 0.0 0.00 0.00 0.00 71 1009.7
20260505020038 23 199 0.0 0.0 0.00 0.00 0.00 71 1008.0
20260505015819 23 192 0.0 0.0 0.00 0.00 0.00 70 1009.7
20260505015524 23 197 0.0 0.0 0.00 0.00 0.00 70 1007.9
20260505015314 23 174 0.0 0.0 0.00 0.00 0.00 70 1009.6
20260505015008 23 157 0.0 0.0 0.00 0.00 0.00 70 1008.0
20260505014831 23 199 0.0 0.0 0.00 0.00 0.00 70 1009.7
20260505014504 23 193 0.0 0.0 0.00 0.00 0.00 70 1007.9
20260505014328 23 179 0.0 0.0 0.00 0.00 0.00 70 1009.6
20260505014058 23 195 0.0 0.0 0.00 0.00 0.00 69 1007.8
20260505013825 23 187 0.0 0.0 0.00 0.00 0.00 69 1009.5
20260505013550 23 179 0.0 0.0 0.00 0.00 0.00 69 1007.9
20260505013321 23 210 0.0 0.0 0.00 0.00 0.00 69 1009.6
20260505013042 23 194 0.0 0.0 0.00 0.00 0.00 69 1007.8
20260505012818 24 196 0.0 0.0 0.00 0.00 0.00 68 1009.5
20260505012536 23 179 0.0 0.0 0.00 0.00 0.00 68 1007.8
20260505012353 24 196 0.0 0.0 0.00 0.00 0.00 68 1009.5
20260505012058 23 192 0.0 0.0 0.00 0.00 0.00 68 1007.8
20260505011828 24 190 0.0 0.0 0.00 0.00 0.00 68 1009.5
20260505011550 24 194 0.0 0.0 0.00 0.00 0.00 68 1007.7
20260505011325 24 193 0.0 0.0 0.00 0.00 0.00 68 1009.4
20260505011047 24 163 0.0 0.0 0.00 0.00 0.00 68 1007.7
20260505010838 24 204 0.0 0.0 0.00 0.00 0.00 67 1009.3
20260505010516 24 181 0.0 0.0 0.00 0.00 0.00 67 1007.6
20260505010332 25 206 0.0 0.0 0.00 0.00 0.00 67 1009.4
20260505010113 24 174 0.0 0.0 0.00 0.00 0.00 67 1007.7
20260505005829 25 167 0.0 0.0 0.00 0.00 0.00 66 1009.4
20260505005552 24 199 0.0 0.0 0.00 0.00 0.00 66 1007.8
20260505005324 25 186 0.0 0.0 0.00 0.00 0.00 66 1009.5
20260505005042 25 199 0.0 0.0 0.00 0.00 0.00 66 1007.8
20260505004840 25 214 0.0 0.0 0.00 0.00 0.00 66 1009.5
20260505004513 25 204 0.0 0.0 0.00 0.00 0.00 65 1007.9
20260505004314 25 187 0.0 0.0 0.00 0.00 0.00 65 1009.6
20260505004100 25 192 0.0 0.0 0.00 0.00 0.00 65 1007.9
20260505003830 25 181 0.0 0.0 0.00 0.00 0.00 65 1009.6
20260505003550 25 200 0.0 0.0 0.00 0.00 0.00 64 1008.1
20260505003327 25 197 0.0 0.0 0.00 0.00 0.00 64 1009.7
20260505003045 25 218 0.0 0.0 0.00 0.00 0.00 64 1008.1
20260505002823 25 208 0.0 0.0 0.00 0.00 0.00 63 1009.8
20260505002538 25 192 0.0 0.0 0.00 0.00 0.00 63 1008.1
20260505002318 26 176 0.0 0.0 0.00 0.00 0.00 63 1009.8
20260505002028 25 185 0.0 0.0 0.00 0.00 0.00 63 1008.1
20260505001815 26 213 0.0 0.0 0.00 0.00 0.00 63 1009.8
20260505001512 26 191 0.0 0.0 0.00 0.00 0.00 63 1008.1
20260505001331 26 201 0.0 0.0 0.00 0.00 0.00 63 1009.7
20260505001003 26 213 0.0 0.0 0.00 0.00 0.00 63 1008.0
20260505000848 26 211 0.0 0.0 0.00 0.00 0.00 63 1009.6
20260505000540 26 194 0.0 0.0 0.00 0.00 0.00 63 1008.0
20260505000322 26 186 0.0 0.0 0.00 0.00 0.00 63 1009.7
20260505000037 26 187 0.0 0.0 0.00 0.00 0.00 63 1008.0
20260504235818 26 184 0.0 0.0 0.00 0.00 0.00 62 1009.6
20260504235526 26 204 0.0 0.0 0.00 0.00 0.00 62 1008.1
20260504235315 26 205 0.0 0.0 0.00 0.00 0.00 61 1009.6
20260504235012 26 194 0.0 0.0 0.00 0.00 0.00 61 1008.0
20260504234850 26 187 0.0 0.0 0.00 0.00 0.00 61 1009.6
20260504234542 26 152 0.0 0.0 0.00 0.00 0.00 61 1007.9
20260504234345 26 224 0.0 0.0 0.00 0.00 0.00 61 1009.5
20260504234006 26 224 0.0 0.0 0.00 0.00 0.00 60 1008.0
20260504233820 26 224 0.0 0.0 0.00 0.00 0.00 60 1009.6
20260504233600 26 185 0.0 0.0 0.00 0.00 0.00 61 1008.0
20260504233315 27 180 0.0 0.0 0.00 0.00 0.00 61 1009.6
20260504233052 26 196 0.0 0.0 0.00 0.00 0.00 61 1008.1
20260504232832 26 211 0.0 0.0 0.00 0.00 0.00 60 1009.8
20260504232543 26 213 0.0 0.0 0.00 0.00 0.00 61 1008.2
20260504232328 26 206 0.0 0.0 0.00 0.00 0.00 62 1009.9
20260504232036 26 211 0.0 0.0 0.00 0.00 0.00 61 1008.1
20260504231845 26 208 0.0 0.0 0.00 0.00 0.00 61 1009.7
20260504231625 26 207 0.0 0.0 0.00 0.00 0.00 61 1008.3
20260504231320 26 192 0.0 0.0 0.00 0.00 0.00 61 1009.9
20260504231052 26 206 0.0 0.0 0.00 0.00 0.00 61 1008.0
20260504230817 27 222 0.0 0.0 0.00 0.00 0.00 60 1009.7
20260504230542 26 212 0.0 0.0 0.00 0.00 0.00 60 1008.1
20260504230314 27 181 0.0 0.0 0.00 0.00 0.00 60 1009.6
20260504230034 26 195 0.0 0.0 0.00 0.00 0.00 59 1008.1
20260504225830 27 206 0.0 0.0 0.00 0.00 0.00 59 1009.7
20260504225526 27 154 0.0 0.0 0.00 0.00 0.00 59 1008.1
20260504225347 27 192 0.0 0.0 0.00 0.00 0.00 59 1009.8
20260504225056 27 185 0.0 0.0 0.00 0.00 0.00 59 1008.1
20260504224821 27 174 0.0 0.0 0.00 0.00 0.00 59 1009.8
20260504224544 27 154 0.0 0.0 0.00 0.00 0.00 59 1008.2
20260504224401 27 197 0.0 0.0 0.00 0.00 0.00 58 1009.9
20260504224016 27 209 0.0 0.0 0.00 0.00 0.00 59 1008.2
20260504223830 27 199 0.0 0.0 0.00 0.00 0.00 59 1010.0
20260504223502 27 191 0.0 0.0 0.00 0.00 0.00 59 1008.3
20260504223347 27 212 0.0 0.0 0.00 0.00 0.00 60 1009.9
20260504223034 27 212 0.0 0.0 0.00 0.00 0.00 60 1008.2
20260504222843 27 190 0.0 0.0 0.00 0.00 0.00 59 1009.9
20260504222601 27 164 0.0 0.0 0.00 0.00 0.00 59 1008.3
20260504222318 27 229 0.0 0.0 0.00 0.00 0.00 60 1010.0
20260504222051 27 185 0.0 0.0 0.00 0.00 0.00 60 1008.4
20260504221853 27 179 0.0 0.0 0.00 0.00 0.00 59 1010.2
20260504221514 27 171 0.0 0.0 0.00 0.00 0.00 59 1008.6
20260504221328 27 199 0.0 0.0 0.00 0.00 0.00 59 1010.1
20260504221007 27 223 0.0 0.0 0.00 0.00 0.00 59 1008.5
20260504220823 27 207 0.0 0.0 0.00 0.00 0.00 58 1010.1
20260504220604 27 194 0.0 0.0 0.00 0.00 0.00 59 1008.6
20260504220318 27 201 0.0 0.0 0.00 0.00 0.00 59 1010.3
20260504220052 27 241 0.0 0.0 0.00 0.00 0.00 60 1008.6
20260504215833 27 211 0.0 0.0 0.00 0.00 0.00 60 1010.2
20260504215546 27 201 0.0 0.0 0.00 0.00 0.00 60 1008.7
20260504215329 27 225 0.0 0.0 0.00 0.00 0.00 59 1010.3
20260504215037 26 204 0.0 0.0 0.00 0.00 0.00 60 1008.7
20260504214825 27 172 0.0 0.0 0.00 0.00 0.00 60 1010.3
20260504214528 26 218 0.0 0.0 0.00 0.00 0.00 59 1008.7
20260504214319 27 151 0.0 0.0 0.00 0.00 0.00 60 1010.4
20260504214020 26 228 0.0 0.0 0.00 0.00 0.00 59 1008.8
20260504213836 27 193 0.0 0.0 0.00 0.00 0.00 60 1010.5
20260504213543 26 186 0.0 0.0 0.00 0.00 0.00 60 1009.0
20260504213332 27 185 0.0 0.0 0.00 0.00 0.00 61 1010.5
20260504213041 26 191 0.0 0.0 0.00 0.00 0.00 60 1008.9
20260504212827 27 221 0.0 0.0 0.00 0.00 0.00 61 1010.7
20260504212530 26 195 0.0 0.0 0.00 0.00 0.00 62 1009.0
20260504212325 27 211 0.0 0.0 0.00 0.00 0.00 60 1010.7
20260504212021 26 156 0.0 0.0 0.00 0.00 0.00 61 1009.0
20260504211840 26 158 0.0 0.0 0.00 0.00 0.00 61 1010.7
20260504211547 26 158 0.0 0.0 0.00 0.00 0.00 61 1008.9
20260504211353 26 206 0.0 0.0 0.00 0.00 0.00 60 1010.6
20260504211007 26 195 0.0 0.0 0.00 0.00 0.00 60 1009.1
20260504210830 27 181 0.0 0.0 0.00 0.00 0.00 60 1010.8
20260504210603 26 180 0.0 0.0 0.00 0.00 0.00 61 1009.3
20260504210327 27 162 0.0 0.0 0.00 0.00 0.00 61 1011.0
20260504210052 26 194 0.0 0.0 0.00 0.00 0.00 63 1009.3
20260504205821 26 214 0.0 0.0 0.00 0.00 0.00 63 1011.0
20260504205544 26 214 0.0 0.0 0.00 0.00 0.00 61 1009.6
20260504205318 26 228 0.0 0.0 0.00 0.00 0.00 62 1011.2
20260504205035 26 197 0.0 0.0 0.00 0.00 0.00 62 1009.7
20260504204850 26 218 0.0 0.0 0.00 0.00 0.00 62 1011.3
20260504204502 26 175 0.0 0.0 0.00 0.00 0.00 62 1009.9
20260504204325 26 197 0.0 0.0 0.00 0.00 0.00 62 1011.6
20260504204058 26 201 0.0 0.0 0.00 0.00 0.00 62 1010.0
20260504203822 26 194 0.0 0.0 0.00 0.00 0.00 63 1011.7
20260504203550 26 215 0.0 0.0 0.00 0.00 0.00 62 1010.1
20260504203338 26 212 0.0 0.0 0.00 0.00 0.00 63 1011.8
20260504203018 26 216 0.0 0.0 0.00 0.00 0.00 63 1010.2
20260504202814 26 157 0.0 0.0 0.00 0.00 0.00 62 1011.9
20260504202602 26 173 0.0 0.0 0.00 0.00 0.00 62 1010.5
20260504202329 26 228 0.0 0.0 0.00 0.00 0.00 64 1012.0
20260504202055 26 224 0.0 0.0 0.00 0.00 0.00 63 1010.5
20260504201846 26 164 0.0 0.0 0.00 0.00 0.00 63 1012.1
20260504201527 25 177 0.0 0.0 0.00 0.00 0.00 63 1010.6
20260504201322 26 226 0.0 0.0 0.00 0.00 0.00 64 1012.3
20260504201008 25 175 0.0 0.0 0.00 0.00 0.00 64 1010.7
20260504200818 26 164 0.0 0.0 0.00 0.00 0.00 64 1012.2
20260504200559 25 222 0.0 0.0 0.00 0.00 0.00 64 1010.8
20260504200315 25 214 0.0 0.0 0.00 0.00 0.00 63 1012.4
20260504200054 25 214 0.0 0.0 0.00 0.00 0.00 65 1010.8
20260504195830 25 214 0.0 0.0 0.00 0.00 0.00 64 1012.3
20260504195545 25 198 0.0 0.0 0.00 0.00 0.00 64 1010.8
20260504195326 25 222 0.0 0.0 0.00 0.00 0.00 63 1012.4
20260504195037 25 230 0.0 0.0 0.00 0.00 0.00 64 1010.9
20260504194842 25 223 0.0 0.0 0.00 0.00 0.00 64 1012.6
20260504194606 25 219 0.0 0.0 0.00 0.00 0.00 65 1011.2
20260504194316 25 206 0.0 0.0 0.00 0.00 0.00 65 1012.8
20260504194054 25 206 0.0 0.0 0.00 0.00 0.00 65 1011.2
20260504193832 25 193 0.0 0.0 0.00 0.00 0.00 64 1012.8
20260504193545 25 195 0.0 0.0 0.00 0.00 0.00 64 1011.1
20260504193329 25 186 0.0 0.0 0.00 0.00 0.00 64 1012.7
20260504193044 25 201 0.0 0.0 0.00 0.00 0.00 65 1011.3
20260504192824 25 169 0.0 0.0 0.00 0.00 0.00 66 1013.0
20260504192527 24 220 0.0 0.0 0.00 0.00 0.00 65 1011.4
20260504192320 25 216 0.0 0.0 0.00 0.00 0.00 67 1013.1
20260504192023 24 193 0.0 0.0 0.00 0.00 0.00 65 1011.7
20260504191816 25 173 0.0 0.0 0.00 0.00 0.00 66 1013.3
20260504191517 24 216 0.0 0.0 0.00 0.00 0.00 65 1011.5
20260504191314 25 224 0.0 0.0 0.00 0.00 0.00 65 1013.1
20260504191013 24 211 0.0 0.0 0.00 0.00 0.00 67 1011.5
20260504190830 25 226 0.0 0.0 0.00 0.00 0.00 67 1013.1
20260504190555 24 198 0.0 0.0 0.00 0.00 0.00 67 1011.8
20260504190325 24 198 0.0 0.0 0.00 0.00 0.00 67 1013.3
20260504190049 23 214 0.0 0.0 0.00 0.00 0.00 67 1012.0
20260504185821 24 172 0.0 0.0 0.00 0.00 0.00 67 1013.5
20260504185546 23 186 0.0 0.0 0.00 0.00 0.00 67 1012.0
20260504185319 23 211 0.0 0.0 0.00 0.00 0.00 68 1013.5
20260504185035 23 215 0.0 0.0 0.00 0.00 0.00 69 1012.0
20260504184854 23 236 0.0 0.0 0.00 0.00 0.00 69 1013.6
20260504184609 23 194 0.0 0.0 0.00 0.00 0.00 68 1012.1
20260504184330 23 226 0.0 0.0 0.00 0.00 0.00 68 1013.7
20260504184052 23 243 0.0 0.0 0.00 0.00 0.00 68 1012.3
20260504183826 23 181 0.0 0.0 0.00 0.00 0.00 68 1013.8
20260504183542 23 211 0.0 0.0 0.00 0.00 0.00 69 1012.3
20260504183342 23 208 0.0 0.0 0.00 0.00 0.00 69 1013.9
20260504183003 23 166 0.0 0.0 0.00 0.00 0.00 69 1012.3
20260504182818 23 198 0.0 0.0 0.00 0.00 0.00 70 1013.8
20260504182557 23 237 0.0 0.0 0.00 0.00 0.00 69 1012.5
20260504182314 23 211 0.0 0.0 0.00 0.00 0.00 69 1013.9
20260504182053 23 205 0.0 0.0 0.00 0.00 0.00 69 1012.5
20260504181830 23 172 0.0 0.0 0.00 0.00 0.00 71 1013.8
20260504181543 22 145 0.0 0.0 0.00 0.00 0.00 70 1012.4
20260504181325 23 209 0.0 0.0 0.00 0.00 0.00 71 1014.1
20260504181037 22 215 0.0 0.0 0.00 0.00 0.00 71 1012.7
20260504180819 22 216 0.0 0.0 0.00 0.00 0.00 71 1014.2
20260504180530 22 226 0.0 0.0 0.00 0.00 0.00 71 1012.8
20260504180317 22 210 0.0 0.0 0.00 0.00 0.00 70 1014.4
20260504180016 22 240 0.0 0.0 0.00 0.00 0.00 72 1012.8
20260504175833 22 241 0.0 0.0 0.00 0.00 0.00 72 1014.4
20260504175507 22 241 0.0 0.0 0.00 0.00 0.00 72 1012.8
20260504175344 22 229 0.0 0.0 0.00 0.00 0.00 72 1014.4
20260504175039 22 189 0.0 0.0 0.00 0.00 0.00 71 1012.9
20260504174820 22 215 0.0 29.0 0.00 0.00 0.00 72 1014.5
20260504174533 21 204 0.0 29.0 0.00 0.00 0.00 72 1013.0
20260504174317 22 186 0.0 30.6 0.00 0.00 0.00 73 1014.7
20260504174025 21 220 12.9 33.8 0.00 0.00 0.00 72 1013.2
20260504173833 21 208 19.3 33.8 0.00 0.00 0.00 73 1014.6
20260504173509 21 211 17.7 35.4 0.00 0.00 0.00 73 1013.1
20260504173329 21 226 19.3 35.4 0.00 0.00 0.00 73 1014.6
20260504173005 21 220 17.7 35.4 0.00 0.00 0.00 73 1013.1
20260504172825 21 214 20.9 35.4 0.00 0.00 0.00 73 1014.6
20260504172559 21 223 20.9 35.4 0.00 0.00 0.00 72 1013.2
20260504172322 21 197 22.5 35.4 0.00 0.00 0.00 73 1014.8
20260504172047 21 189 19.3 35.4 0.00 0.00 0.00 73 1013.3
20260504171818 21 191 22.5 35.4 0.00 0.00 0.00 73 1014.8
20260504171539 21 216 17.7 32.2 0.00 0.00 0.00 73 1013.4
20260504171314 21 207 19.3 32.2 0.00 0.00 0.00 73 1014.9
20260504171021 21 199 19.3 35.4 0.00 0.00 0.00 73 1013.5
20260504170830 21 195 19.3 37.0 0.00 0.00 0.00 73 1015.0
20260504170509 21 195 20.9 37.0 0.00 0.00 0.00 73 1013.4
20260504170326 21 185 24.1 37.0 0.00 0.00 0.00 73 1014.9
20260504170107 21 188 25.7 38.6 0.00 0.00 0.00 73 1013.5
20260504160338 20 191 27.4 45.1 0.00 0.00 0.00 73 1015.0
20260504151039 19 207 17.7 35.4 0.00 0.00 0.00 75 1014.2
20260504150826 20 206 22.5 35.4 0.00 0.00 0.00 76 1015.6
20260504150533 19 168 20.9 35.4 0.00 0.00 0.00 76 1014.1
20260504150323 19 151 24.1 35.4 0.00 0.00 0.00 75 1015.6
20260504141008 18 177 17.7 37.0 0.00 0.00 0.00 79 1014.3
20260504140818 18 204 20.9 37.0 0.00 0.00 0.00 79 1015.6
20260504140603 18 218 22.5 35.4 0.00 0.00 0.00 79 1014.2
20260504140315 18 222 20.9 35.4 0.00 0.00 0.00 79 1015.5
20260504130501 16 208 17.7 30.6 0.00 0.00 0.00 82 1014.0
20260504130320 16 179 17.7 30.6 0.00 0.00 0.00 82 1015.3
20260504110547 15 170 9.7 16.1 0.00 0.00 0.00 82 1013.8
20260504110322 15 191 8.0 16.1 0.00 0.00 0.00 82 1015.0
20260504100542 15 186 4.8 12.9 0.00 0.00 0.00 80 1014.5
20260504100332 15 201 6.4 12.9 0.00 0.00 0.00 80 1015.8
20260504081818 16 183 8.0 14.5 0.00 0.00 0.00 74 1016.1
20260504081600 16 174 6.4 16.1 0.00 0.00 0.00 74 1014.8
20260504081500 16 174 8.0 16.1 0.00 0.00 0.00 74 1014.8
20260504081314 16 190 8.0 16.1 0.00 0.00 0.00 74 1016.1
20260504081055 16 195 8.0 16.1 0.00 0.00 0.00 74 1014.8
20260504080850 16 210 9.7 16.1 0.00 0.00 0.00 74 1016.0
20260504080524 16 195 6.4 17.7 0.00 0.00 0.00 74 1014.8
20260504080325 16 195 9.7 17.7 0.00 0.00 0.00 74 1016.1
20260504070331 16 173 12.9 25.7 0.00 0.00 0.00 70 1016.8
20260504050526 16 191 6.4 9.7 0.00 0.00 0.00 66 1017.1
20260504050326 16 191 6.4 9.7 0.00 0.00 0.00 66 1018.2
20260504050123 16 191 4.8 8.0 0.00 0.00 0.00 66 1017.1
20260504045832 16 191 4.8 8.0 0.00 0.00 0.00 66 1018.3
20260504045540 16 191 3.2 8.0 0.00 0.00 0.00 66 1017.1
20260504045328 16 191 4.8 8.0 0.00 0.00 0.00 66 1018.3
20260504045034 16 191 4.8 8.0 0.00 0.00 0.00 66 1017.1
20260504044825 16 191 6.4 8.0 0.00 0.00 0.00 66 1018.2
20260504044532 16 191 4.8 8.0 0.00 0.00 0.00 66 1017.1
20260504044321 16 191 4.8 6.4 0.00 0.00 0.00 66 1018.3
20260504044016 16 191 3.2 6.4 0.00 0.00 0.00 66 1017.2
20260504043818 16 191 4.8 6.4 0.00 0.00 0.00 66 1018.4
20260504043602 16 191 3.2 6.4 0.00 0.00 0.00 66 1017.2
20260504043315 16 191 4.8 6.4 0.00 0.00 0.00 66 1018.3
20260504043103 16 191 3.2 6.4 0.00 0.00 0.00 66 1017.1
20260504042830 16 191 3.2 6.4 0.00 0.00 0.00 66 1018.4
20260504042551 16 191 3.2 6.4 0.00 0.00 0.00 66 1017.2
20260504042327 16 191 3.2 6.4 0.00 0.00 0.00 66 1018.5
20260504042044 16 191 3.2 6.4 0.00 0.00 0.00 66 1017.2
20260504041824 16 191 3.2 6.4 0.00 0.00 0.00 66 1018.5
20260504041537 16 191 3.2 6.4 0.00 0.00 0.00 65 1017.4
20260504041320 16 191 3.2 6.4 0.00 0.00 0.00 65 1018.6
20260504041033 16 191 3.2 6.4 0.00 0.00 0.00 65 1017.4
20260504040851 16 191 3.2 6.4 0.00 0.00 0.00 65 1018.6
20260504040558 16 191 3.2 6.4 0.00 0.00 0.00 65 1017.5